This is the latest recevied weather packets stored in our database for station/object KD9CCP. If no packets are shown the sender has not sent any weather packets the latest 10 day(s).
| Time | Temp. | Humidity | Pressure | Rain* | Wind** | Luminosity | Snow |
|---|---|---|---|---|---|---|---|
| 1778016576 | 5° C | 59% | 1010.4 hPa | 0 mm | - | 46 W/m² | - |
| 1778016272 | 5° C | 53% | 1010.4 hPa | 0 mm | - | 45 W/m² | - |
| 1778015969 | 5.56° C | 57% | 1010.1 hPa | 0 mm | - | 52 W/m² | - |
| 1778015666 | 5° C | 56% | 1010.4 hPa | 0 mm | - | 64 W/m² | - |
| 1778015362 | 5° C | 56% | 1010.3 hPa | 0 mm | - | 74 W/m² | - |
| 1778015063 | 5.56° C | 54% | 1010.4 hPa | 0 mm | - | 60 W/m² | - |
| 1778014756 | 5° C | 56% | 1010.4 hPa | 0 mm | - | 67 W/m² | - |
| 1778014455 | 5° C | 57% | 1010.1 hPa | 0 mm | - | 64 W/m² | - |
| 1778014152 | 5° C | 59% | 1010.1 hPa | 0 mm | - | 81 W/m² | - |
| 1778013849 | 5° C | 62% | 1010.3 hPa | 0 mm | - | 61 W/m² | - |
| 1778013546 | 5° C | 57% | 1010.4 hPa | 0 mm | - | 59 W/m² | - |
| 1778013243 | 5° C | 55% | 1010.3 hPa | 0 mm | - | 61 W/m² | - |
| 1778012939 | 5.56° C | 62% | 1010.1 hPa | 0 mm | - | 73 W/m² | - |
| 1778012635 | 5.56° C | 55% | 1010 hPa | 0 mm | - | 68 W/m² | - |
| 1778012332 | 5° C | 59% | 1010 hPa | 0 mm | - | 80 W/m² | - |
| 1778012029 | 5° C | 57% | 1010.1 hPa | 0 mm | - | 75 W/m² | - |
| 1778011728 | 5° C | 57% | 1010.1 hPa | 0 mm | - | 69 W/m² | - |
| 1778011424 | 5.56° C | 57% | 1009.9 hPa | 0 mm | - | 86 W/m² | - |
| 1778011120 | 5° C | 57% | 1009.9 hPa | 0 mm | - | 66 W/m² | - |
| 1778010817 | 5.56° C | 56% | 1009.8 hPa | 0 mm | - | 63 W/m² | - |
| 1778010514 | 5° C | 57% | 1009.8 hPa | 0 mm | - | 69 W/m² | - |
| 1778010211 | 5° C | 57% | 1009.8 hPa | 0 mm | - | 88 W/m² | - |
| 1778009906 | 5° C | 59% | 1009.9 hPa | 0 mm | - | 75 W/m² | - |
| 1778009605 | 5° C | 62% | 1009.7 hPa | 0 mm | - | 83 W/m² | - |
| 1778009302 | 5° C | 59% | 1009.7 hPa | 0 mm | - | 58 W/m² | - |
* Rain latest hour (hover to see other rain measurements)
** Current wind speed in m/s (hover to see current wind gust speed)